Terminal Aerodrome Forecast
Issued by NWS

Home | Current Version | Previous Version | Text Only | Print | Product List | Glossary On
Versions: 1 2 3 4 5 6 7 8 9 10 11 12 13 14 15 16 17 18 19 20 21
227
FTUS46 KSEW 111130
TAFBFI
TAF
KBFI 111130Z 1112/1212 14003KT P6SM VCFG SKC
     FM112000 VRB03KT P6SM SKC
     FM120400 15005KT P6SM BKN200
     FM121100 15003KT P6SM BKN080=

USA.gov is the U.S. government's official web portal to all federal, state and local government web resources and services.